[[{"header":{"parameterUnit":"m.s-1","parameterCategory":1,"la1":30.2991,"la2":30.254,"lo1":-89.0895,"lo2":-89.0444,"dy":0.0017,"dx":0.0017,"nx":28,"ny":28,"refTime":"2025-02-11T09:00:00:Z","depth":0,"parameterNumber":2,"parameterNumberName":"U-component_of_WINDS"},"data":[0,0,0,0,0,0,0,0,0,0,0,0,0,0,0,0,0,0,0,0,0,0,0,0,0,0,0,0,0,0,0,0,0,0,0,0,0,0,0,0,0,0,0,0,0,0,0,0,0,0,0,0,0,0,0,0,0,0,-0.8638,-0.8639,0,-0.8722,-0.8723,-0.8724,-0.8785,-0.8785,-0.8786,-0.8786,-0.8867,-0.8868,-0.887,0,0,0,0,0,0,0,0,0,0,0,0,0,-0.8523,-0.8525,-0.8638,-0.8639,-0.864,-0.8722,-0.8723,-0.8725,-0.8785,-0.8785,-0.8786,-0.8786,-0.8866,-0.8868,-0.887,0,0,0,0,0,0,0,0,0,0,0,0,0,-0.8586,-0.8525,-0.8638,-0.868,-0.8685,-0.8722,-0.8723,-0.8725,-0.8784,-0.8785,-0.8786,-0.8787,-0.8865,-0.8868,-0.887,-0.887,0,0,-0.8878,-0.8879,0,0,0,0,0,0,0,0,-0.8583,-0.8591,-0.8673,-0.8677,-0.8682,-0.8744,-0.8713,-0.8773,-0.8784,-0.8746,-0.8786,-0.8787,-0.8825,-0.8831,-0.8845,-0.8874,-0.8878,-0.8878,-0.888,-0.8881,-0.8882,0,0,0,0,0,0,0,-0.8578,-0.8587,-0.8671,-0.8674,-0.868,-0.8693,-0.8703,-0.8724,-0.878,-0.875,-0.8754,-0.8764,-0.8828,-0.8842,-0.8847,-0.8879,-0.8878,-0.888,-0.8882,-0.8883,-0.8912,-0.8912,0,0,0,0,0,0,-0.8568,-0.8583,-0.8668,-0.8674,-0.8634,-0.8694,-0.8705,-0.8723,-0.878,-0.879,-0.8763,-0.8766,-0.8837,-0.8844,-0.885,-0.8854,-0.8881,-0.8883,-0.8885,-0.8913,-0.8912,-0.8911,0,0,0,0,0,0,-0.8565,-0.8575,-0.8665,-0.863,-0.8642,-0.8696,-0.8715,-0.8725,-0.8739,-0.879,-0.88,-0.8768,-0.8838,-0.8846,-0.8865,-0.8857,-0.8884,-0.8887,-0.8914,-0.8913,-0.8912,-0.8861,0,0,0,0,0,0,-0.8562,-0.8574,-0.8576,-0.863,-0.8644,-0.868,-0.8715,-0.8726,-0.8744,-0.8749,-0.8797,-0.8806,-0.884,-0.8861,-0.8868,-0.8861,-0.8888,-0.8915,-0.8913,-0.8912,-0.8864,-0.8859,-0.8854,0,0,0,0,0,-0.8558,-0.8557,-0.8576,-0.8585,-0.8648,-0.868,-0.8688,-0.8728,-0.8743,-0.8745,-0.8777,-0.8805,-0.8857,-0.8863,-0.8871,-0.8865,-0.8916,-0.8914,-0.8912,-0.8866,-0.886,-0.8854,0,0,0,0,0,0,-0.8499,-0.8565,-0.8586,-0.8603,-0.8636,-0.869,-0.8693,-0.872,-0.8747,-0.8751,-0.8798,-0.8808,-0.8822,-0.8845,-0.885,-0.8868,-0.889,-0.889,-0.8852,-0.8846,-0.8841,-0.8835,-0.8891,0,0,0,0,0,-0.8488,-0.8511,-0.8566,-0.8576,-0.8591,-0.8639,-0.8655,-0.8683,-0.8718,-0.8731,-0.8765,-0.8796,-0.882,-0.8834,-0.8859,-0.8868,-0.8879,-0.8868,-0.8863,-0.8858,-0.8857,-0.8863,-0.8859,-0.8906,-0.8906,-0.8906,0,0,-0.8465,-0.8504,-0.8515,-0.8565,-0.8594,-0.8614,-0.865,-0.867,-0.8686,-0.8734,-0.8754,-0.878,-0.8818,-0.8831,-0.8839,-0.8851,-0.8847,-0.8856,-0.8853,-0.8854,-0.8861,-0.8857,-0.8852,-0.8905,-0.8905,-0.8905,0,0,-0.8435,-0.8467,-0.8479,-0.8507,-0.8551,-0.8583,-0.8585,-0.8636,-0.8656,-0.8677,-0.8714,-0.8731,-0.8771,-0.8797,-0.8815,-0.8794,-0.882,-0.8801,-0.8775,-0.878,-0.8776,-0.8773,-0.8765,-0.8762,-0.88,-0.88,-0.88,0,-0.8401,-0.8435,-0.8481,-0.8499,-0.8519,-0.8566,-0.8577,-0.8602,-0.865,-0.8662,-0.8675,-0.8727,-0.8755,-0.8776,-0.8771,-0.8784,-0.8787,-0.8795,-0.8774,-0.8771,-0.8769,-0.8761,-0.8758,-0.8797,-0.8797,-0.8798,-0.8798,0,-0.8391,-0.8414,-0.8418,-0.8466,-0.8486,-0.8501,-0.8547,-0.8562,-0.8588,-0.8618,-0.8639,-0.8675,-0.8708,-0.8715,-0.874,-0.8738,-0.8744,-0.8765,-0.8788,-0.8761,-0.8755,-0.8752,-0.8793,-0.8794,-0.8795,-0.8796,0,0,-0.8325,-0.8399,-0.8399,-0.8422,-0.8473,-0.8491,-0.8507,-0.8541,-0.8553,-0.8584,-0.8598,-0.8631,-0.8651,-0.8671,-0.8699,-0.8704,-0.8685,-0.8724,-0.8726,-0.8715,-0.8684,-0.8668,-0.8664,-0.8702,-0.8702,-0.8702,-0.8681,0,-0.8302,-0.8336,-0.8377,-0.8396,-0.8417,-0.8462,-0.8475,-0.8507,-0.8536,-0.8557,-0.8587,-0.861,-0.8634,-0.8647,-0.8654,-0.8685,-0.8679,-0.8688,-0.8714,-0.8714,-0.8703,-0.8661,-0.8644,-0.8623,-0.8679,-0.8678,-0.8678,0,-0.828,-0.8312,-0.8333,-0.8383,-0.8393,-0.8405,-0.844,-0.8459,-0.8496,-0.8516,-0.8539,-0.8571,-0.8588,-0.8609,-0.8633,-0.8638,-0.8651,-0.8668,-0.8668,-0.8672,-0.8694,-0.8663,-0.8617,-0.8613,-0.8675,-0.8675,-0.8675,0,-0.8229,-0.8277,-0.8296,-0.8313,-0.8372,-0.838,-0.8404,-0.8442,-0.846,-0.8489,-0.8501,-0.8531,-0.8547,-0.8569,-0.8607,-0.8619,-0.8626,-0.865,-0.8642,-0.8641,-0.8641,-0.864,-0.8596,-0.865,-0.865,-0.865,-0.865,0,-0.8199,-0.821,-0.8274,-0.8285,-0.8299,-0.8345,-0.8357,-0.8385,-0.8418,-0.8434,-0.8474,-0.8488,-0.8538,-0.8557,-0.8587,-0.8602,-0.8608,-0.8624,-0.8632,-0.862,-0.8618,-0.8629,-0.8631,-0.8649,-0.8649,-0.865,-0.865,0,-0.8144,-0.8188,-0.8211,-0.8266,-0.828,-0.8287,-0.8333,-0.8344,-0.8376,-0.8396,-0.8403,-0.8451,-0.8476,-0.8516,-0.8552,-0.8572,-0.8582,-0.8595,-0.857,-0.8574,-0.8563,-0.8564,-0.8524,-0.8521,-0.8577,-0.8576,-0.8576,0,-0.8122,-0.8132,-0.8188,-0.8203,-0.8227,-0.825,-0.8269,-0.8315,-0.8332,-0.8375,-0.8381,-0.841,-0.8435,-0.8473,-0.851,-0.8537,-0.8551,-0.8535,-0.8555,-0.8544,-0.855,-0.8549,-0.855,-0.853,-0.8529,-0.8529,-0.8528,0,-0.8078,-0.8099,-0.8126,-0.816,-0.8182,-0.821,-0.8241,-0.825,-0.8302,-0.832,-0.8347,-0.8367,-0.8405,-0.8432,-0.8465,-0.8488,-0.8516,-0.8522,-0.8521,-0.8509,-0.8494,-0.8502,-0.8556,-0.8522,-0.8523,-0.8523,-0.8524,-0.8524,-0.8038,-0.8049,-0.8091,-0.8119,-0.8147,-0.8175,-0.8189,-0.8222,-0.8246,-0.8282,-0.8307,-0.8332,-0.8368,-0.8416,-0.8438,-0.8457,-0.8469,-0.8469,-0.8468,-0.8467,-0.8463,-0.8492,-0.8463,-0.8463,-0.8464,-0.8464,-0.8464,0,-0.7996,-0.8025,-0.8051,-0.8093,-0.8115,-0.8142,-0.8176,-0.8192,-0.8215,-0.8247,-0.8272,-0.8302,-0.8329,-0.8368,-0.8398,-0.8406,-0.8419,-0.8412,-0.8411,-0.8416,-0.845,-0.8448,-0.84,-0.84,-0.84,-0.84,-0.84,-0.84,-0.7976,-0.7996,-0.8022,-0.8055,-0.8084,-0.8111,-0.8128,-0.8153,-0.8179,-0.8213,-0.8236,-0.8262,-0.8297,-0.8329,-0.8354,-0.8365,-0.8374,-0.8362,-0.8376,-0.8408,-0.8413,-0.8419,-0.8417,-0.8364,-0.8364,-0.834,-0.834,-0.834]},{"header":{"parameterUnit":"m.s-1","parameterCategory":1,"la1":30.2991,"la2":30.254,"lo1":-89.0895,"lo2":-89.0444,"dy":0.0017,"dx":0.0017,"nx":28,"ny":28,"refTime":"2025-02-11T09:00:00:Z","depth":0,"parameterNumber":3,"parameterNumberName":"V-component_of_WINDS"},"data":[0,0,0,0,0,0,0,0,0,0,0,0,0,0,0,0,0,0,0,0,0,0,0,0,0,0,0,0,0,0,0,0,0,0,0,0,0,0,0,0,0,0,0,0,0,0,0,0,0,0,0,0,0,0,0,0,0,0,6.8391,6.8393,0,6.8543,6.8545,6.8547,6.8564,6.8563,6.8561,6.856,6.8717,6.8723,6.8728,0,0,0,0,0,0,0,0,0,0,0,0,0,6.8119,6.8124,6.8391,6.8393,6.8395,6.8543,6.8545,6.8547,6.8565,6.8563,6.8561,6.8559,6.8715,6.8722,6.8729,0,0,0,0,0,0,0,0,0,0,0,0,0,6.8251,6.8125,6.8391,6.8421,6.8426,6.8543,6.8545,6.8548,6.8565,6.8563,6.856,6.8558,6.8713,6.8721,6.873,6.8827,0,0,6.8755,6.8759,0,0,0,0,0,0,0,0,6.8243,6.8261,6.8415,6.8419,6.8424,6.8532,6.8507,6.8642,6.8566,6.8512,6.856,6.8557,6.8658,6.8671,6.8704,6.8834,6.8841,6.8756,6.8761,6.8765,6.8767,0,0,0,0,0,0,0,6.8234,6.8254,6.8451,6.8417,6.8423,6.8429,6.8445,6.8533,6.8596,6.8517,6.8518,6.8536,6.866,6.8696,6.8708,6.8844,6.8756,6.8763,6.8769,6.8772,6.9065,6.9067,0,0,0,0,0,0,6.8219,6.8246,6.8446,6.8456,6.8326,6.8435,6.8454,6.85,6.8595,6.8607,6.8538,6.8536,6.8683,6.8698,6.8714,6.8836,6.8765,6.8773,6.8777,6.9062,6.9065,6.9068,0,0,0,0,0,0,6.8213,6.8237,6.844,6.8352,6.8378,6.8442,6.8495,6.8504,6.854,6.8611,6.8623,6.8563,6.8682,6.8702,6.8799,6.8841,6.8776,6.8784,6.9059,6.9063,6.9067,6.908,0,0,0,0,0,0,6.8205,6.8234,6.8271,6.8352,6.8383,6.8523,6.8497,6.8509,6.8555,6.8554,6.8637,6.8649,6.8681,6.8787,6.8808,6.8852,6.8791,6.9055,6.9061,6.9065,6.9076,6.9084,6.909,0,0,0,0,0,6.8195,6.8268,6.8273,6.8297,6.843,6.8525,6.8542,6.8577,6.8558,6.8596,6.8642,6.8646,6.8833,6.8797,6.882,6.8868,6.9053,6.9059,6.9065,6.9072,6.9082,6.909,0,0,0,0,0,0,6.819,6.8279,6.8285,6.8386,6.8448,6.8528,6.8577,6.8586,6.8655,6.8651,6.8693,6.8711,6.8808,6.8847,6.8805,6.8968,6.8941,6.8953,6.8939,6.8949,6.8956,6.8945,6.8798,0,0,0,0,0,6.82,6.8269,6.8344,6.8426,6.8457,6.8512,6.8554,6.8576,6.8642,6.8668,6.8721,6.8785,6.8858,6.8905,6.8977,6.9082,6.9101,6.9126,6.9134,6.9139,6.9149,6.921,6.9222,6.9088,6.9088,6.9088,0,0,6.8223,6.828,6.8321,6.8427,6.8477,6.8549,6.8533,6.8609,6.8663,6.8679,6.8775,6.8816,6.8891,6.8993,6.9041,6.9029,6.919,6.9147,6.9151,6.9158,6.9217,6.923,6.9241,6.9093,6.9092,6.9091,0,0,6.8301,6.835,6.8425,6.8476,6.8553,6.8589,6.8607,6.8686,6.8714,6.8811,6.8826,6.8891,6.9016,6.9069,6.9113,6.9214,6.9221,6.9236,6.9274,6.9333,6.9344,6.9354,6.9392,6.9404,6.9245,6.9245,6.9245,0,6.8319,6.8427,6.8463,6.8539,6.8586,6.8605,6.8682,6.873,6.8826,6.8859,6.8844,6.9003,6.9054,6.9171,6.9196,6.923,6.9253,6.9227,6.9339,6.9349,6.9359,6.9396,6.941,6.9246,6.9246,6.9246,6.9246,0,6.8447,6.8522,6.8573,6.8666,6.8719,6.8795,6.8844,6.8894,6.8912,6.895,6.905,6.9112,6.9198,6.9227,6.9245,6.9347,6.9337,6.9331,6.9305,6.9372,6.9408,6.9422,6.9248,6.9248,6.9247,6.9247,0,0,6.8524,6.8637,6.8656,6.8699,6.8786,6.8845,6.8924,6.9007,6.905,6.9116,6.9184,6.9291,6.9286,6.9335,6.936,6.9411,6.949,6.9399,6.9401,6.9415,6.9609,6.9614,6.9629,6.9496,6.9498,6.9501,6.9603,0,6.8613,6.8752,6.8788,6.8907,6.8978,6.8998,6.9067,6.9129,6.9167,6.9234,6.9277,6.9353,6.9339,6.937,6.9422,6.9469,6.953,6.9462,6.9561,6.9564,6.9542,6.9648,6.9653,6.9746,6.9617,6.9619,6.9621,0,6.8734,6.8804,6.893,6.9011,6.9042,6.9103,6.9184,6.9247,6.9318,6.9343,6.9399,6.9419,6.9504,6.9473,6.9591,6.9544,6.9587,6.9617,6.9622,6.9633,6.9597,6.9663,6.9777,6.9791,6.9643,6.9641,6.9639,0,6.878,6.8905,6.8998,6.9034,6.9129,6.9172,6.9214,6.9283,6.9332,6.9403,6.9436,6.9516,6.956,6.9622,6.9664,6.9638,6.978,6.9752,6.9804,6.9803,6.9833,6.9831,6.9957,6.9859,6.9859,6.9858,6.9858,0,6.8876,6.8953,6.902,6.9077,6.9165,6.9206,6.9292,6.9335,6.9397,6.9464,6.9486,6.9548,6.9599,6.967,6.9703,6.9797,6.9816,6.984,6.9848,6.9839,6.9836,6.9868,6.9863,6.9862,6.9861,6.9861,6.986,0,6.8941,6.8989,6.9092,6.9174,6.9197,6.9258,6.933,6.9387,6.9427,6.9511,6.9534,6.9597,6.9681,6.9729,6.9834,6.9857,6.9962,6.9967,6.9938,6.9942,6.9992,6.9987,7.0144,7.0167,7.0052,7.0053,7.0054,0,6.9,6.906,6.9149,6.9196,6.9238,6.9313,6.9363,6.9407,6.9459,6.9546,6.9594,6.9679,6.9749,6.9883,6.9939,7.002,7.0028,7.0077,7.004,7.003,7.0031,7.0027,7.0035,7.0084,7.0085,7.0086,7.0086,0,6.9099,6.912,6.9192,6.9273,6.9332,6.9398,6.9464,6.9501,6.9556,6.9613,6.97,6.9755,6.9863,6.9948,7.0035,7.008,7.0093,7.0098,7.0114,7.0106,7.0087,7.01,6.9957,7.0094,7.0093,7.0092,7.0092,7.0092,6.9164,6.9219,6.9292,6.9371,6.9425,6.9487,6.9545,6.9593,6.9666,6.9758,6.978,6.9871,6.9944,7.0061,7.0108,7.0182,7.0173,7.0197,7.0203,7.0209,7.0211,7.0075,7.0197,7.0197,7.0197,7.0197,7.0197,0,6.9266,6.9314,6.9387,6.9478,6.9542,6.9549,6.9622,6.9675,6.9755,6.9822,6.9891,6.9992,7.0075,7.0139,7.0225,7.0271,7.028,7.0292,7.029,7.0301,7.0213,7.0191,7.0284,7.0284,7.0284,7.0284,7.0284,7.0284,6.9326,6.9421,6.9451,6.9574,6.9622,6.9711,6.9753,6.9811,6.9864,6.9975,7.0045,7.0086,7.0152,7.0243,7.0321,7.0338,7.0369,7.0381,7.0399,7.0316,7.0306,7.0297,7.0277,7.0387,7.0387,7.0481,7.0482,7.0482]}]]